Погода в Кубе

Погода в Кубе : погода сейчас, прогноз погоды и архив. Всё, что Вы хотите узнать о погоде в Кубе!

Поиск расширенной информации на нашем сайте:

Другие новости

Новости СМИ2

Главная страница сайта

Новости сайта

03.07.2017

Напоминаем, что на нашем специализированном сайте Метеоцентр.Азия вы можете получить высокодетализированные автоматические прогнозы погоды по пунктам России, СНГ и мира в авиационном формате (включающие направление и скорость ветра, видимость, явления погоды, количество и форму облачности, нижнюю и верхнюю границу облачности).

Рекомендуем: Знакомство в Одессе бесплатный сайт Знакомств.

Погода в Кубе - сегодня

Время (UTC), дата Ветер
(°,м/с) 
Видим.   Явления Облачность Т
(°С)
Тd
(°С)
f(%) Тe
(°С)
Pmin
(гПа)
dP
(гПа)
Po
(мм)
O2
(г/м3)
Тmin Tmax R s Состояние
почвы
21 17.09.17 250 (З) 2000 м    ясно 
+17.8 +11.8 68 +24  1018.9  -1.3  717  269           
00 18.09.17 250 (З) 2000 м    ясно 
+17.2 +10.5 65 +21  1016.5  -0.4  716  270           
03 18.09.17 270 (З) 20000 м    ясно 
+16 +8.8 62 +18  1018.4  -0.4  716  271           
09 18.09.17 020 (С) 20000 м    ясно 
+28.9 +8.9 29 +30  1013.5  -1.6  715  259           
12 18.09.17 020 (С) 20000 м    ясно 
+30.2 +9.9 28 +32  1011.7  -1.4  713  257           
15 18.09.17 тихо ()   20000 м    ясно 
+25.6 +11.3 41 +30  1012.2  -0.4  713  261           
18 18.09.17 250 (З) 2000 м    ясно 
+20.4 +11.3 56 +24  1014.1  0.8  714  265    +30.6       
21 18.09.17 270 (З) 2000 м    ясно 
+18.2 +10.4 60 +22  1013.9  -0.7  713  267           
00 19.09.17 270 (З) 2000 м    ясно 
+17.9 +6.7 48 +19  1013.5  -0.5  713  268           
03 19.09.17 320 (СЗ) 20000 м    ясно 
+18.1 +4.1 39 +19  1014  0.5  713  269           
06 19.09.17 160 (Ю) 20000 м    ясно 
+28.7 +4.6 22 +29  1012.7  0.9  714  260  +17.4         
09 19.09.17 140 (ЮВ) 20000 м    ясно 
+31.7 +8.4 24 +32  1011.6  -0.4  714  256           
12 19.09.17 090 (В) 20000 м    ясно 
+30.6 +12.5 33 +36  1011.1  -0.6  713  256           
15 19.09.17 тихо ()   20000 м    ясно 
+26.1 +12.7 43 +32  1012.3  0.3  713  260           
18 19.09.17 270 (З) 2000 м    ясно 
+21.6 +13.8 61 +30  1014.4  1.1  714  264    +32.6       
21 19.09.17 270 (З) 2000 м    ясно 
+20.2 +12.4 61 +26  1015  0.2  714  266           
00 20.09.17 230 (ЮЗ) 2000 м    ясно 
+19.7 +11 57 +25  1014.7  -0.4  714  266           
03 20.09.17 270 (З) 20000 м    3/3 1000 м 
[Cu hum]
+19.5 +10.9 58 +24  1014.9  0.2  714  267           
06 20.09.17 140 (ЮВ) 20000 м    ясно 
+29.3 +9.8 30 +31  1013.3  0.3  714  258  +19.1         
09 20.09.17 070 (В) 20000 м    4/4 1000 м 
[Cu hum]
+30.3 +11.3 31 +34  1012.3  -0.6  714  257           
12 20.09.17 050 (СВ) 20000 м    8/8 1000 м 
[Cu hum]
+29 +11.2 33 +33  1012.9  0.3  714  258           
15 20.09.17 050 (СВ) 20000 м    8/0 средняя 
[Ac As]
+25.6 +11.1 40 +29  1013.3  -0.4  714  261           
18 20.09.17 270 (З) 2000 м    ясно 
+23.5 +12.1 49 +29  1014.3  0.6  714  263    +30.6       
21 20.09.17 250 (З) 2000 м    ясно 
+21.1 +11.7 55 +26  1014.6  -0.2  714  265           
00 21.09.17 250 (З) 2000 м    ясно 
+19.9 +11.7 59 +26  1014.4  -0.4  714  266           
Время (UTC), дата Ветер
(°,м/с) 
Видим.   Явления Облачность Т
(°С)
Тd
(°С)
f(%) Тe
(°С)
Pmin
(гПа)
dP
(гПа)
Po
(мм)
O2
(г/м3)
Тmin Tmax R s Состояние
почвы

Для получения пояснительной информации подведите курсор к названию столбца.

ПОГОДА в Кубе - архив

Всё, что Вы хотите узнать о погоде в Кубе - удобно и подробно!

Выберите нужную дату (начиная с 1 января 2015* года) и нажмите кнопку "Найти".
Будут отображены архивные сводки погоды по пункту Куба, начиная с указанной даты.


Отображать данные в формате CSV (для использования в таблицах Excel)


Внимание! Наш архив погоды предназначен исключительно для личного некоммерческого использования в познавательных целях. Если Вам необходимы официальные справки о состоянии погоды (для производственных, юридических, коммерческих и т.п. целей), обращайтесь в органы Росгидромета.

*Примечание: данная дата относится к архиву по метеостанциям СССР (Россия, СНГ, Балтия).
Архив по метеостанциям Зарубежной Европы и Азии (кроме Китая) хранится 10 дней, по другим регионам земного шара (Китай, Африка, Америка, Австралия, Океания) - 1 день.

Куба - район местоположения метеостанции


Название, широта, долгота, высота метеостанции:
Куба 41.4°ш. 48.5°д. 552 м над ур. моря [Азербайджан]

Дополнительная информация

В oтличие oт бoльшинства пoгoдных сайтoв мы публикуем пoдрoбную метеoинфoрмацию в детальнoм прoфессиoнальнoм фoрмате.

Характеристики температуры и влажнoсти вoздуха измеряются на высoте 2 м в тени вдали oт зданий и деревьев.
Скoрoсть ветра измеряется на высoте 10 м (на урoвне рoста челoвека скoрoсть ветра ниже в 1.5-2 раза). Если метеoстанция нахoдится в гoрoде или в лесу, тo скoрoсть ветра занижена на 2-4 м/с пo сравнению с oткрытым местoм. Скoрoсть ветра над акватoриями крупных рек и oзёр, а также на вершинах хoлмoв на 2-5 м/с выше, чем в oбычных услoвиях.
Атмoсфернoе давление в разных тoчках местнoсти мoжет значительнo oтличаться oт давления на метеoстанции, в зависимoсти oт услoвий рельефа (при пoдъёме на 10 м давление пoнижается примернo на 1 мм рт.ст.).